Tracking 28902 objects as of 19-May-2024
HD Live streaming from Space Station
objects crossing your sky now

FLOCK 4Y 34

Track FLOCK 4Y 34 now!
10-day predictions
FLOCK 4Y 34 is classified as:


NORAD ID: 55082
Int'l Code: 2023-001CB
Perigee: 482.7 km
Apogee: 497.9 km
Inclination: 97.4 °
Period: 94.3 minutes
Semi major axis: 6861 km
RCS: Unknown
Launch date: January 3, 2023
Source: United States (US)
Launch site: AIR FORCE EASTERN TEST RANGE (AFETR)
Your satellite tracking list
Your tracking list is empty




NASA's NSSDC Master Catalog

Two Line Element Set (TLE):
1 55082U 23001CB  24139.42121493  .00025701  00000-0  95301-3 0  9997
2 55082  97.4271 201.5715 0011041 266.4090  93.5887 15.27539028 76248
Source of the keplerian elements: AFSPC